Loisir ou Compétition : Rejoignez un Club de la Fédération

Résultats

GRAND PRIX REGIONAL

LA CLUSAZ

FS Hommes

Jury de Compétition

Délégué Technique :
PORRET THIERRY (MB)
D.T. Adjoint :
DESGRANGES JEAN LOUIS (MB)
Dir. Epreuve :
VITTOZ STEPHANE (MB)

Caractéristiques de la Piste

Piste :
LES CONFINS - LE PLATEAU
Distance :
5,0 km
Point Haut :
1435 m
Point Bas :
1408 m
Montée Tot. :
 
Montée Max. :
 
Homologation :
2017-6-1

Pénalité Appliquée :
0.0000
Coefficient :
 

Catégorie :
U15
Style :
L
Clt Dos Clt/Cat Code An Nom Prénom Com Club Temps Ecart Points
Classés
1 76 1/U15 FFS2676910 2005 CLAVEL SIMON MB CS LA CLUSAZ 11:39.2 00:00.0 0.00
2 77 2/U15 FFS2686681 2005 DELOCHE LINO MB SC GD BORNAN 11:46.7 00:07.5 8.58
3 72 3/U15 FFS2686938 2005 VALLEIX JORIS MB SCNP ROCHOIS 11:51.7 00:12.5 14.30
4 67 4/U15 FFS2671565 2005 COLOMBAN ALEXIS MB SCNP ROCHOIS 11:56.3 00:17.1 19.57
5 84 5/U15 FFS2686242 2005 VIGUIER QUENTIN MB CS LA CLUSAZ 11:58.6 00:19.4 22.20
6 62 6/U15 FFS2666324 2005 FAVRE FELIX KILLIAN MB SC GD BORNAN 12:09.6 00:30.4 34.78
7 83 7/U15 FFS2686793 2005 MARIE ADELIN MB SC D'AGY 12:14.5 00:35.3 40.39
8 93 8/U15 FFS2686663 2005 PERRILLAT BOITEUX ANTHONY MB SC GD BORNAN 12:15.3 00:36.1 41.30
9 52 9/U15 FFS2691997 2006 FAVRE NILS MB DRAGONS ANNY 12:22.7 00:43.5 49.77
10 71 10/U15 FFS2686695 2005 PERRILLAT BOTTONET JUDICA MB SC GD BORNAN 12:22.9 00:43.7 50.00
11 85 11/U15 FFS2686542 2005 PEYRET TILIEN MB DRAGONS ANNY 12:29.0 00:49.8 56.98
12 80 12/U15 FFS2692252 2006 MENCIER ARTHUR MB SCNP ROCHOIS 12:30.0 00:50.8 58.12
12 113 12/U15 FFS2691996 2006 CALANDRY JOHAN MB DRAGONS ANNY 12:30.0 00:50.8 58.12
14 61 14/U15 FFS2681171 2005 LUZET HUGO MB CS LA CLUSAZ 12:30.8 00:51.6 59.04
15 91 15/U15 FFS2686939 2005 GRENARD MAX MB SCNP ROCHOIS 12:33.9 00:54.7 62.59
16 107 16/U15 FFS2667744 2005 BIZZOCCHI ESTEBAN MB SC D'AGY 12:38.4 00:59.2 67.73
17 104 17/U15 FFS2666342 2005 OUVRIER BUFFET JULES MB CS LA CLUSAZ 12:41.8 01:02.6 71.62
18 105 18/U15 FFS2686543 2005 ROMERI NATHAN MB DRAGONS ANNY 12:42.2 01:03.0 72.08
19 75 19/U15 FFS2670538 2006 SEIGNEUR NOE MB VILLARD/BOEG 12:43.6 01:04.4 73.68
20 111 20/U15 FFS2691553 2006 LESPINE QUENTIN MB SC GD BORNAN 12:48.5 01:09.3 79.29
21 82 21/U15 FFS2691557 2006 PERRILLAT COLLOMB MARIO MB SC GD BORNAN 12:49.3 01:10.1 80.21
22 119 22/U15 FFS2686538 2005 JOMIER LOIS MB DRAGONS ANNY 12:50.5 01:11.3 81.58
23 66 23/U15 FFS2693695 2006 PINGET LORIS MB VILLARD/BOEG 12:56.3 01:17.1 88.22
24 65 24/U15 FFS2696623 2006 LAVY ARTHUR MB DRAGONS ANNY 12:58.3 01:19.1 90.50
25 114 25/U15 FFS2681175 2006 MERMILLOD BLARDET CYPRIEN MB CS LA CLUSAZ 13:01.3 01:22.1 93.94
26 89 26/U15 FFS2692552 2005 PETROD BASTIEN MB CNG 13:03.0 01:23.8 95.88
27 79 27/U15 FFS2669077 2006 BOUCHEX BELLOMIE JEREMIE MB CS MEGEVE 13:05.4 01:26.2 98.63
28 94 28/U15 FFS2696947 2006 BOUCHEX BELLOMIE KLEO MB CS MEGEVE 13:10.0 01:30.8 103.89
29 96 29/U15 FFS2692554 2005 ZAVARISE NOAH MB CNG 13:13.2 01:34.0 107.55
30 54 30/U15 FFS2688043 2005 MAGNIEZ OSCAR MB DRAGONS ANNY 13:14.5 01:35.3 109.04
31 110 31/U15 FFS2674953 2006 BETEND BAPTISTE MB CS ARGENTIER 13:15.2 01:36.0 109.84
32 86 32/U15 FFS2687103 2005 MOREAU SIMEON MB SCNP ROCHOIS 13:17.8 01:38.6 112.81
33 58 33/U15 FFS2691998 2006 LOYER ARMAN MB DRAGONS ANNY 13:18.6 01:39.4 113.73
34 117 34/U15 FFS2687102 2005 SYLVESTRE BARON PAUL MB SCNP ROCHOIS 13:23.5 01:44.3 119.34
35 73 35/U15 FFS2681304 2005 PERSONNAZ LOAN MB DRAGONS ANNY 13:25.5 01:46.3 121.62
36 112 36/U15 FFS2690481 2005 THABUIS BASILE MB VILLARD/BOEG 13:27.8 01:48.6 124.26
37 109 37/U15 FFS2691437 2006 GANDIGLIO TIBO MB PRAZ LYS-SOM 13:30.8 01:51.6 127.69
38 59 38/U15 FFS2686795 2005 DELERCE THIBAULT MB SC D'AGY 13:33.5 01:54.3 130.78
39 101 39/U15 FFS2686940 2005 LEVET PROSPER MB SCNP ROCHOIS 13:35.3 01:56.1 132.84
40 115 40/U15 FFS2679388 2006 GILARDONI LOUISON MB CS MEGEVE 13:36.0 01:56.8 133.64
41 92 41/U15 FFS2692545 2006 BIANCOLLI LUIGI MB CNG 13:39.3 02:00.1 137.41
42 63 42/U15 FFS2687749 2006 PEALA NILS MB DRAGONS ANNY 13:43.3 02:04.1 141.99
43 103 43/U15 FFS2693694 2006 MARTIN LUBIN MB VILLARD/BOEG 13:52.7 02:13.5 152.75
44 108 44/U15 FFS2687035 2005 CORNU MATHIEU MB CS CHAMONIX 13:54.0 02:14.8 154.23
45 81 45/U15 FFS2702394 2006 BOLLARD ROMAIN MB CNG 14:08.8 02:29.6 171.17
46 55 46/U15 FFS2701302 2006 DEXPERT MALO MB SC GD BORNAN 14:11.4 02:32.2 174.14
47 90 47/U15 FFS2671164 2006 MESER BALET NATHAN MB VILLARD/BOEG 14:14.9 02:35.7 178.15
48 74 48/U15 FFS2678381 2006 AIRIAU GUILHEM DA US AUTRANNAI 14:23.1 02:43.9 187.53
49 118 49/U15 FFS2675891 2006 ROUX MATHIS MB CS MEGEVE 14:27.2 02:48.0 192.22
50 60 50/U15 FFS2691561 2006 REMONT HUGO MB SC GD BORNAN 14:32.2 02:53.0 197.94
51 95 51/U15 FFS2689955 2006 BREMOND NATHAN MB SC GD BORNAN 14:32.6 02:53.4 198.40
52 87 52/U15 FFS2688574 2006 TOCQUEVILLE LOUIS MB CS LA CLUSAZ 14:33.3 02:54.1 199.20
53 97 53/U15 FFS2691439 2006 PATRY YANIS MB PRAZ LYS-SOM 14:35.3 02:56.1 201.49
54 56 54/U15 FFS2691548 2006 GODINAT ETHAN MB SC GD BORNAN 14:40.6 03:01.4 207.55
55 57 55/U15 FFS2682273 2006 SORDET JULES MB VILLARD/BOEG 14:47.5 03:08.3 215.45
56 102 56/U15 FFS2693681 2006 BRETONNIERE ANTON MB VILLARD/BOEG 14:49.5 03:10.3 217.73
57 98 57/U15 FFS2702100 2006 NOZIN KILIAN MB SCNP ROCHOIS 14:50.2 03:11.0 218.54
58 106 58/U15 FFS2686260 2005 BOSSUT AUGUSTIN MB PRAZ LYS-SOM 14:55.3 03:16.1 224.37
59 78 59/U15 FFS2693690 2006 GOVAERTS COME MB VILLARD/BOEG 14:58.3 03:19.1 227.80
60 116 60/U15 FFS2687856 2005 VEISY KILLIAN MB EN HT GIFFRE 15:07.8 03:28.6 238.67
61 100 61/U15 FFS2691704 2006 REYMOND NOLAN MB SALLANCHES 15:09.1 03:29.9 240.16
62 99 62/U15 FFS2691434 2006 BOUCHET MAEL MB PRAZ LYS-SOM 15:13.9 03:34.7 245.65
63 70 63/U15 FFS2692777 2006 MARUZZI LEO MB CS ARGENTIER 15:14.3 03:35.1 246.11
64 68 64/U15 FFS2693692 2006 JACQUELINE LEO MB VILLARD/BOEG 15:18.4 03:39.2 250.80
Abandons
53 FFS2672513 2006 HUDRY VALENTIN MB SC GD BORNAN
Non partants
64 FFS2679226 2006 GRZELAK AYMERIC MB CS MEGEVE
69 FFS2690844 2005 HAEBERLI ARTHUR MB CS LA CLUSAZ
88 FFS2686033 2006 CABRERA GAEL MB CS ARGENTIER